Change the Weather History Date:

Sunday, August 11, 2013

  Actual Average Record
Temperature  
Mean Temperature 64 °F -  
Max Temperature 73 °F 73 °F 92 °F (1989)
Min Temperature 55 °F 54 °F 40 °F (1977)
Degree Days  
Heating Degree Days 1    
Growing Degree Days 14 (Base 50)    
Moisture  
Dew Point 54 °F    
Average Humidity 74    
Maximum Humidity 94    
Minimum Humidity 41    
Precipitation  
Precipitation 0.01 in - - ()
Sea Level Pressure  
Sea Level Pressure 30.08 in    
Wind  
Wind Speed 5 mph (NNW)    
Max Wind Speed 12 mph    
Max Gust Speed -    
Visibility 10 miles    
Events      
Averages and records for this station are not official NWS values.
T = Trace of Precipitation, MM = Missing Value Source: NWS Daily Summary

Daily Weather History Graph

Daily Weather History Graph

Search for Another Location

Airport or City:

Trip Planner

Search our weather history database for the weather conditions in past years. The results will help you decide how hot, cold, wet, or windy it might be!

Date:

Astronomy

Aug. 11, 2013 Rise Set
Actual Time 6:14 AM CDT 8:44 PM CDT
Civil Twilight 5:39 AM CDT 9:19 PM CDT
Nautical Twilight 4:55 AM CDT 10:02 PM CDT
Astronomical Twilight 4:04 AM CDT 10:53 PM CDT
Moon 11:31 AM CDT (8/11) 10:31 PM CDT (8/11)
Length of Visible Light 15h 39m
Length of Day
14h 30m
Waxing Crescent, 22% of the Moon is Illuminated
Aug 11
Waxing Crescent
Aug 14
First Quarter
Aug 20
Full
Aug 28
Last Quarter
Sep 5
New

Hourly Weather History & Observations

Time (CDT) Temp. Dew Point Humidity Pressure Visibility Wind Dir Wind Speed Gust Speed Precip Events Conditions
12:15 AM 60.8 °F 55.4 °F 82% 30.08 in 10.0 mi Calm Calm - N/A   Overcast
12:35 AM 60.8 °F 55.4 °F 82% 30.09 in 10.0 mi North 10.4 mph - 0.01 in   Overcast
12:55 AM 60.8 °F 55.4 °F 82% 30.08 in 10.0 mi NNE 9.2 mph - 0.01 in   Overcast
1:15 AM 60.8 °F 55.4 °F 82% 30.08 in 10.0 mi NNE 9.2 mph - N/A   Overcast
1:35 AM 60.8 °F 55.4 °F 82% 30.08 in 10.0 mi NNE 6.9 mph - N/A   Mostly Cloudy
1:55 AM 60.8 °F 57.2 °F 88% 30.08 in 10.0 mi NE 5.8 mph - N/A   Mostly Cloudy
2:15 AM 60.8 °F 57.2 °F 88% 30.08 in 10.0 mi NE 5.8 mph - N/A   Overcast
2:35 AM 59.0 °F 55.4 °F 88% 30.08 in 10.0 mi Calm Calm - N/A   Mostly Cloudy
2:55 AM 59.0 °F 57.2 °F 94% 30.08 in 10.0 mi Calm Calm - N/A   Overcast
3:15 AM 59.0 °F 57.2 °F 94% 30.08 in 10.0 mi Calm Calm - N/A   Overcast
3:35 AM 59.0 °F 57.2 °F 94% 30.08 in 10.0 mi Calm Calm - N/A   Overcast
3:55 AM 59.0 °F 57.2 °F 94% 30.08 in 10.0 mi East 3.5 mph - N/A   Overcast
4:15 AM 59.0 °F 55.4 °F 88% 30.08 in 10.0 mi Calm Calm - N/A   Overcast
4:35 AM 59.0 °F 57.2 °F 94% 30.08 in 10.0 mi Calm Calm - N/A   Overcast
4:55 AM 57.2 °F 55.4 °F 94% 30.08 in 10.0 mi Calm Calm - N/A   Mostly Cloudy
5:15 AM 57.2 °F 55.4 °F 94% 30.08 in 10.0 mi Calm Calm - N/A   Mostly Cloudy
5:35 AM 57.2 °F 55.4 °F 94% 30.09 in 10.0 mi NW 3.5 mph - N/A   Mostly Cloudy
5:55 AM 57.2 °F 55.4 °F 94% 30.10 in 9.0 mi NW 6.9 mph - N/A   Mostly Cloudy
6:15 AM 57.2 °F 55.4 °F 94% 30.10 in 10.0 mi NNW 5.8 mph - N/A   Overcast
6:35 AM 57.2 °F 55.4 °F 94% 30.11 in 10.0 mi North 4.6 mph - N/A   Overcast
6:55 AM 57.2 °F 55.4 °F 94% 30.11 in 10.0 mi NNW 3.5 mph - N/A   Overcast
7:15 AM 57.2 °F 55.4 °F 94% 30.11 in 10.0 mi NNW 4.6 mph - N/A   Overcast
7:35 AM 59.0 °F 55.4 °F 88% 30.11 in 10.0 mi NNW 3.5 mph - N/A   Overcast
7:55 AM 59.0 °F 55.4 °F 88% 30.11 in 10.0 mi NW 5.8 mph - N/A   Overcast
8:15 AM 59.0 °F 55.4 °F 88% 30.11 in 10.0 mi NW 5.8 mph - N/A   Overcast
8:35 AM 59.0 °F 55.4 °F 88% 30.11 in 10.0 mi NNW 3.5 mph - N/A   Overcast
8:55 AM 60.8 °F 55.4 °F 82% 30.11 in 10.0 mi NW 4.6 mph - N/A   Scattered Clouds
9:15 AM 60.8 °F 55.4 °F 82% 30.11 in 10.0 mi North 8.1 mph - N/A   Mostly Cloudy
9:35 AM 60.8 °F 55.4 °F 82% 30.10 in 10.0 mi North 8.1 mph - N/A   Scattered Clouds
9:55 AM 62.6 °F 55.4 °F 77% 30.10 in 10.0 mi North 8.1 mph - N/A   Partly Cloudy
10:15 AM 62.6 °F 55.4 °F 77% 30.10 in 10.0 mi NNW 4.6 mph - N/A   Scattered Clouds
10:35 AM 62.6 °F 55.4 °F 77% 30.11 in 10.0 mi North 9.2 mph - N/A   Partly Cloudy
10:55 AM 62.6 °F 55.4 °F 77% 30.11 in 10.0 mi North 8.1 mph - N/A   Mostly Cloudy
11:15 AM 62.6 °F 55.4 °F 77% 30.11 in 10.0 mi North 6.9 mph - N/A   Mostly Cloudy
11:35 AM 64.4 °F 55.4 °F 73% 30.11 in 10.0 mi NNW 9.2 mph - N/A   Mostly Cloudy
11:55 AM 64.4 °F 55.4 °F 73% 30.11 in 10.0 mi NNE 8.1 mph - N/A   Mostly Cloudy
12:15 PM 64.4 °F 55.4 °F 73% 30.11 in 10.0 mi North 9.2 mph - N/A   Overcast
12:35 PM 66.2 °F 55.4 °F 68% 30.11 in 10.0 mi North 8.1 mph - N/A   Scattered Clouds
12:55 PM 68.0 °F 55.4 °F 64% 30.10 in 10.0 mi NNE 9.2 mph - N/A   Clear
1:15 PM 69.8 °F 53.6 °F 56% 30.10 in 10.0 mi NNW 9.2 mph - N/A   Clear
1:35 PM 69.8 °F 55.4 °F 60% 30.09 in 10.0 mi NNE 8.1 mph - N/A   Partly Cloudy
1:55 PM 69.8 °F 55.4 °F 60% 30.10 in 10.0 mi NNW 9.2 mph - N/A   Partly Cloudy
2:15 PM 71.6 °F 55.4 °F 57% 30.09 in 10.0 mi NE 5.8 mph - N/A   Scattered Clouds
2:35 PM 69.8 °F 53.6 °F 56% 30.09 in 10.0 mi NE 5.8 mph - N/A   Scattered Clouds
2:55 PM 71.6 °F 51.8 °F 50% 30.09 in 10.0 mi North 9.2 mph - N/A   Partly Cloudy
3:15 PM 71.6 °F 53.6 °F 53% 30.09 in 10.0 mi North 9.2 mph - N/A   Scattered Clouds
3:35 PM 71.6 °F 51.8 °F 50% 30.08 in 10.0 mi NNW 5.8 mph - N/A   Scattered Clouds
3:55 PM 71.6 °F 51.8 °F 50% 30.08 in 10.0 mi NW 5.8 mph - N/A   Partly Cloudy
4:15 PM 73.4 °F 51.8 °F 47% 30.08 in 10.0 mi Calm Calm - N/A   Partly Cloudy
4:35 PM 73.4 °F 51.8 °F 47% 30.07 in 10.0 mi NNE 8.1 mph - N/A   Mostly Cloudy
4:55 PM 73.4 °F 51.8 °F 47% 30.07 in 10.0 mi NNW 10.4 mph - N/A   Partly Cloudy
5:15 PM 73.4 °F 48.2 °F 41% 30.06 in 10.0 mi NNW 5.8 mph - N/A   Clear
5:35 PM 71.6 °F 51.8 °F 50% 30.06 in 10.0 mi NW 5.8 mph - N/A   Clear
5:55 PM 71.6 °F 51.8 °F 50% 30.06 in 10.0 mi NW 6.9 mph - N/A   Clear
6:15 PM 73.4 °F 51.8 °F 47% 30.06 in 10.0 mi NW 10.4 mph - N/A   Partly Cloudy
6:35 PM 71.6 °F 53.6 °F 53% 30.05 in 10.0 mi NW 11.5 mph - N/A   Partly Cloudy
6:55 PM 71.6 °F 53.6 °F 53% 30.05 in 10.0 mi NNW 8.1 mph - N/A   Clear
7:15 PM 71.6 °F 53.6 °F 53% 30.05 in 10.0 mi NNW 8.1 mph - N/A   Clear
7:35 PM 71.6 °F 53.6 °F 53% 30.05 in 10.0 mi NW 8.1 mph - N/A   Clear
7:55 PM 69.8 °F 53.6 °F 56% 30.05 in 10.0 mi NW 6.9 mph - N/A   Clear
8:15 PM 68.0 °F 51.8 °F 56% 30.05 in 10.0 mi WNW 6.9 mph - N/A   Clear
8:35 PM 66.2 °F 51.8 °F 60% 30.05 in 10.0 mi WNW 4.6 mph - N/A   Clear
8:55 PM 66.2 °F 51.8 °F 60% 30.05 in 10.0 mi WNW 5.8 mph - N/A   Clear
9:15 PM 64.4 °F 51.8 °F 64% 30.06 in 10.0 mi WNW 3.5 mph - N/A   Clear
9:35 PM 60.8 °F 53.6 °F 77% 30.06 in 10.0 mi Calm Calm - N/A   Clear
9:55 PM 62.6 °F 53.6 °F 72% 30.06 in 10.0 mi Calm Calm - N/A   Clear
10:15 PM 60.8 °F 51.8 °F 72% 30.06 in 10.0 mi Calm Calm - N/A   Clear
10:35 PM 59.0 °F 53.6 °F 82% 30.06 in 9.0 mi Calm Calm - N/A   Clear
10:55 PM 57.2 °F 53.6 °F 88% 30.06 in 10.0 mi Calm Calm - N/A   Clear
11:15 PM 55.4 °F 51.8 °F 88% 30.06 in 10.0 mi Calm Calm - N/A   Clear
11:35 PM 55.4 °F 51.8 °F 88% 30.06 in 10.0 mi Calm Calm - N/A   Clear
11:55 PM 55.4 °F 51.8 °F 88% 30.06 in 10.0 mi Calm Calm - N/A   Clear